Location: Poughquag
(41.6090°N, 73.6820°W)
Time: 03:10:00
(UTC-04:00)

Vanguard 2 Rocket - Pass Details

Date: 31 May 2020
Orbit: 556 x 3324 km, 32.9° (Epoch: 06 July)

Event Time Altitude Azimuth Distance (km) Brightness Sun altitude
Rises 22:17:49 0° 274° (W) 5,981 11.7 -16.9°
Reaches altitude 10° 22:22:27 10° 262° (W) 5,355 11.2 -17.4°
Maximum altitude 22:34:39 25° 216° (SW) 4,880 10.4 -18.7°
Enters shadow 22:45:44 15° 178° (S) 5,836 10.5 -19.8°
Drops below altitude 10° 22:48:59 10° 171° (S) 6,261 - -20.1°
Sets 22:55:13 0° 159° (SSE) 7,165 - -20.7°
